EAL1332 KMIA-TIST

Flight info

Callsign EAL1332
Flight time N/A
Altitude 37000
Route KLADA2 BITAC Y290 JETSS
Aircraft L101/H-SDFGHIRWXY/S

Departure

Time N/A
Airport Miami International Airport (KMIA)

Arrival

Time 2026-04-26 08:49
Airport Cyril E. King Airport (TIST)
Time Latitude Longitude Altitude Speed Heading
2026-04-26 07:46 21.98295 -71.81668 36930 ft 544 kts 125°
2026-04-26 07:47 21.96452 -71.78090 36913 ft 552 kts 125°
2026-04-26 07:47 21.92690 -71.70784 36916 ft 561 kts 125°
2026-04-26 07:48 21.88899 -71.63411 36931 ft 564 kts 125°
2026-04-26 07:48 21.85102 -71.56020 36924 ft 566 kts 125°
2026-04-26 07:49 21.82513 -71.50983 36921 ft 566 kts 125°
2026-04-26 07:50 21.80310 -71.46700 36928 ft 567 kts 125°
2026-04-26 07:50 21.78864 -71.43892 36940 ft 566 kts 124°
2026-04-26 07:51 21.75053 -71.36495 36956 ft 566 kts 124°
2026-04-26 07:51 21.71234 -71.29095 36956 ft 566 kts 124°
2026-04-26 07:52 21.67487 -71.21847 36957 ft 566 kts 124°
2026-04-26 07:52 21.63666 -71.14471 36960 ft 565 kts 124°
2026-04-26 07:53 21.59848 -71.07111 36961 ft 565 kts 124°
2026-04-26 07:53 21.55810 -70.99902 36962 ft 564 kts 128°
2026-04-26 07:54 21.51524 -70.92882 36961 ft 561 kts 130°
2026-04-26 07:54 21.47137 -70.85955 36961 ft 560 kts 130°
2026-04-26 07:55 21.42744 -70.79112 36960 ft 559 kts 130°
2026-04-26 07:55 21.38309 -70.72237 36958 ft 558 kts 131°
2026-04-26 07:56 21.33891 -70.65394 36958 ft 558 kts 131°
2026-04-26 07:56 21.29497 -70.58582 36959 ft 557 kts 130°
2026-04-26 07:57 21.25080 -70.51732 36958 ft 557 kts 130°
2026-04-26 07:57 21.20698 -70.44931 36959 ft 557 kts 130°
2026-04-26 07:58 21.16286 -70.38082 36958 ft 557 kts 130°
2026-04-26 07:58 21.11895 -70.31266 36958 ft 557 kts 130°
2026-04-26 07:59 21.07503 -70.24452 36956 ft 557 kts 130°
2026-04-26 07:59 21.03105 -70.17632 36955 ft 557 kts 130°
2026-04-26 08:00 20.98689 -70.10790 36956 ft 557 kts 130°
2026-04-26 08:00 20.94283 -70.03970 36953 ft 557 kts 130°
2026-04-26 08:01 20.89885 -69.97168 36948 ft 557 kts 129°
2026-04-26 08:01 20.85470 -69.90349 36947 ft 557 kts 129°
2026-04-26 08:02 20.81065 -69.83551 36947 ft 558 kts 129°
2026-04-26 08:02 20.76647 -69.76740 36944 ft 557 kts 129°
2026-04-26 08:03 20.72235 -69.69947 36943 ft 558 kts 129°
2026-04-26 08:03 20.67814 -69.63149 36942 ft 558 kts 129°
2026-04-26 08:04 20.63404 -69.56374 36942 ft 558 kts 129°
2026-04-26 08:04 20.58965 -69.49562 36942 ft 558 kts 129°
2026-04-26 08:05 20.54556 -69.42803 36941 ft 557 kts 129°
2026-04-26 08:05 20.50119 -69.36010 36941 ft 557 kts 129°
2026-04-26 08:06 20.45691 -69.29240 36940 ft 557 kts 129°
2026-04-26 08:06 20.41257 -69.22466 36940 ft 557 kts 129°
2026-04-26 08:07 20.36833 -69.15717 36940 ft 557 kts 129°
2026-04-26 08:07 20.32398 -69.08958 36944 ft 556 kts 129°
2026-04-26 08:08 20.27963 -69.02207 36942 ft 555 kts 129°
2026-04-26 08:08 20.23551 -68.95500 36941 ft 555 kts 129°
2026-04-26 08:09 20.19124 -68.88776 36952 ft 554 kts 129°
2026-04-26 08:09 20.14714 -68.82085 36963 ft 552 kts 129°
2026-04-26 08:10 20.10301 -68.75396 36962 ft 552 kts 129°
2026-04-26 08:10 20.05968 -68.68669 36961 ft 552 kts 128°
2026-04-26 08:11 20.01724 -68.61900 36967 ft 551 kts 127°
2026-04-26 08:11 19.97513 -68.55108 36968 ft 551 kts 127°
2026-04-26 08:12 19.93302 -68.48296 36967 ft 551 kts 127°
2026-04-26 08:12 19.89102 -68.41501 36970 ft 551 kts 127°
2026-04-26 08:13 19.84895 -68.34706 36978 ft 550 kts 127°
2026-04-26 08:13 19.80684 -68.27919 36980 ft 550 kts 127°
2026-04-26 08:14 19.76476 -68.21150 36980 ft 549 kts 127°
2026-04-26 08:14 19.72275 -68.14405 36978 ft 549 kts 127°
2026-04-26 08:15 19.68377 -68.08157 36976 ft 549 kts 127°
2026-04-26 08:15 19.66423 -68.05028 36974 ft 549 kts 127°
2026-04-26 08:16 19.62213 -67.98293 36971 ft 549 kts 127°
2026-04-26 08:16 19.57989 -67.91545 36968 ft 549 kts 127°
2026-04-26 08:17 19.53766 -67.84805 36968 ft 549 kts 127°
2026-04-26 08:17 19.49539 -67.78064 36969 ft 549 kts 127°
2026-04-26 08:18 19.45313 -67.71334 36969 ft 549 kts 127°
2026-04-26 08:18 19.41087 -67.64610 36969 ft 549 kts 127°
2026-04-26 08:19 19.36854 -67.57881 36967 ft 549 kts 127°
2026-04-26 08:19 19.32613 -67.51146 36970 ft 549 kts 127°
2026-04-26 08:20 19.28388 -67.44440 36988 ft 549 kts 128°
2026-04-26 08:20 19.24146 -67.37721 36991 ft 548 kts 128°
2026-04-26 08:21 19.19907 -67.31018 36988 ft 548 kts 128°
2026-04-26 08:21 19.15667 -67.24321 36991 ft 548 kts 128°
2026-04-26 08:22 19.11435 -67.17643 37027 ft 548 kts 128°
2026-04-26 08:22 19.09304 -67.14283 36796 ft 550 kts 128°
2026-04-26 08:22 19.07194 -67.10958 36374 ft 548 kts 128°
2026-04-26 08:23 19.05069 -67.07610 35938 ft 546 kts 128°
2026-04-26 08:23 19.02995 -67.04259 35526 ft 544 kts 124°
2026-04-26 08:23 19.01224 -67.00735 35140 ft 542 kts 118°
2026-04-26 08:23 18.99706 -66.97076 34762 ft 546 kts 115°
2026-04-26 08:24 18.98740 -66.94468 34467 ft 547 kts 114°
2026-04-26 08:24 18.97717 -66.91505 34113 ft 548 kts 112°
2026-04-26 08:24 18.96652 -66.88255 33714 ft 548 kts 111°
2026-04-26 08:25 18.95914 -66.85931 33426 ft 547 kts 111°
2026-04-26 08:25 18.94847 -66.82509 33001 ft 545 kts 111°
2026-04-26 08:25 18.93673 -66.78710 32526 ft 542 kts 111°
2026-04-26 08:25 18.92513 -66.74959 32089 ft 539 kts 111°
2026-04-26 08:26 18.91345 -66.71205 31680 ft 536 kts 111°
2026-04-26 08:26 18.90176 -66.67491 31312 ft 532 kts 111°
2026-04-26 08:26 18.88999 -66.63796 31042 ft 527 kts 111°
2026-04-26 08:26 18.87829 -66.60167 30771 ft 524 kts 112°
2026-04-26 08:27 18.86643 -66.56535 30420 ft 521 kts 112°
2026-04-26 08:27 18.85464 -66.52959 30011 ft 522 kts 112°
2026-04-26 08:27 18.84266 -66.49370 29664 ft 513 kts 112°
2026-04-26 08:27 18.83077 -66.45839 29298 ft 510 kts 113°
2026-04-26 08:28 18.81889 -66.42333 28923 ft 503 kts 113°
2026-04-26 08:28 18.80716 -66.38894 28547 ft 493 kts 113°
2026-04-26 08:28 18.79577 -66.35565 28116 ft 475 kts 113°
2026-04-26 08:28 18.78466 -66.32328 27683 ft 467 kts 113°
2026-04-26 08:29 18.77348 -66.29101 27237 ft 470 kts 113°
2026-04-26 08:29 18.76214 -66.25851 26768 ft 473 kts 113°
2026-04-26 08:29 18.75077 -66.22605 26297 ft 473 kts 113°
2026-04-26 08:29 18.73934 -66.19349 25822 ft 472 kts 113°
2026-04-26 08:30 18.72797 -66.16115 25339 ft 470 kts 113°
2026-04-26 08:30 18.71661 -66.12888 24841 ft 467 kts 113°
2026-04-26 08:30 18.70539 -66.09708 24343 ft 464 kts 111°
2026-04-26 08:30 18.69410 -66.06515 23841 ft 464 kts 111°
2026-04-26 08:31 18.68285 -66.03335 23302 ft 462 kts 111°
2026-04-26 08:31 18.67167 -66.00175 22715 ft 459 kts 111°
2026-04-26 08:31 18.66062 -65.97054 22119 ft 452 kts 111°
2026-04-26 08:31 18.64969 -65.93963 21516 ft 445 kts 112°
2026-04-26 08:32 18.63894 -65.90929 20915 ft 439 kts 112°
2026-04-26 08:32 18.63647 -65.90232 20776 ft 437 kts 112°
2026-04-26 08:32 18.63401 -65.89537 20637 ft 436 kts 112°
2026-04-26 08:32 18.62475 -65.86924 20109 ft 431 kts 112°
2026-04-26 08:33 18.61595 -65.84445 19603 ft 426 kts 112°
2026-04-26 08:33 18.60559 -65.81526 18997 ft 416 kts 112°
2026-04-26 08:33 18.59555 -65.78697 18379 ft 407 kts 112°
2026-04-26 08:34 18.58569 -65.75924 17751 ft 398 kts 112°
2026-04-26 08:34 18.58053 -65.74474 17417 ft 393 kts 112°
2026-04-26 08:34 18.57271 -65.72275 16902 ft 386 kts 112°
2026-04-26 08:35 18.56341 -65.69663 16279 ft 361 kts 112°
2026-04-26 08:35 18.55553 -65.67432 15671 ft 320 kts 112°
2026-04-26 08:35 18.54762 -65.65214 15039 ft 325 kts 112°
2026-04-26 08:35 18.53963 -65.62983 14415 ft 326 kts 112°
2026-04-26 08:36 18.53166 -65.60763 13795 ft 327 kts 111°
2026-04-26 08:36 18.52354 -65.58495 13163 ft 326 kts 111°
2026-04-26 08:36 18.51555 -65.56263 12539 ft 326 kts 111°
2026-04-26 08:36 18.50765 -65.54054 11921 ft 325 kts 111°
2026-04-26 08:37 18.49978 -65.51851 11301 ft 323 kts 111°
2026-04-26 08:37 18.49261 -65.49845 10735 ft 322 kts 111°
2026-04-26 08:37 18.48461 -65.47652 10108 ft 319 kts 114°
2026-04-26 08:37 18.47340 -65.45654 9490 ft 315 kts 127°
2026-04-26 08:38 18.46032 -65.43983 8866 ft 281 kts 134°
2026-04-26 08:38 18.44675 -65.42514 8256 ft 280 kts 137°
2026-04-26 08:38 18.43260 -65.41074 7620 ft 284 kts 137°
2026-04-26 08:38 18.41827 -65.39634 6997 ft 286 kts 137°
2026-04-26 08:39 18.40381 -65.38169 6370 ft 288 kts 137°
2026-04-26 08:39 18.38949 -65.36698 5749 ft 289 kts 137°
2026-04-26 08:39 18.37572 -65.35263 5140 ft 258 kts 136°
2026-04-26 08:39 18.36287 -65.33911 4502 ft 267 kts 136°
2026-04-26 08:40 18.34957 -65.32505 3876 ft 272 kts 136°
2026-04-26 08:40 18.33625 -65.31090 3359 ft 271 kts 135°
2026-04-26 08:40 18.32318 -65.29727 3112 ft 257 kts 141°
2026-04-26 08:40 18.30745 -65.28996 2876 ft 242 kts 168°
2026-04-26 08:41 18.29184 -65.28514 2617 ft 229 kts 149°
2026-04-26 08:41 18.28802 -65.28218 2557 ft 219 kts 138°
2026-04-26 08:41 18.28249 -65.27357 2378 ft 205 kts 111°
2026-04-26 08:42 18.28281 -65.25874 2120 ft 208 kts 68°
2026-04-26 08:42 18.28987 -65.24717 2104 ft 211 kts 51°
2026-04-26 08:42 18.29940 -65.23551 2063 ft 212 kts 47°
2026-04-26 08:42 18.30880 -65.22355 2004 ft 212 kts 57°
2026-04-26 08:43 18.31558 -65.21017 1979 ft 205 kts 64°
2026-04-26 08:43 18.32144 -65.19678 1924 ft 201 kts 65°
2026-04-26 08:43 18.32714 -65.18343 1870 ft 198 kts 66°
2026-04-26 08:43 18.33271 -65.17039 1882 ft 196 kts 66°
2026-04-26 08:44 18.33650 -65.16154 1913 ft 196 kts 65°
2026-04-26 08:44 18.34169 -65.14844 1914 ft 195 kts 73°
2026-04-26 08:44 18.34405 -65.13449 1965 ft 190 kts 88°
2026-04-26 08:44 18.34330 -65.12150 1909 ft 165 kts 101°
2026-04-26 08:45 18.34137 -65.11045 1859 ft 143 kts 103°
2026-04-26 08:45 18.33968 -65.10066 1701 ft 132 kts 103°
2026-04-26 08:45 18.33816 -65.09162 1331 ft 120 kts 104°
2026-04-26 08:45 18.33672 -65.08286 813 ft 129 kts 106°
2026-04-26 08:46 18.33465 -65.07195 528 ft 164 kts 107°
2026-04-26 08:46 18.33218 -65.05961 778 ft 181 kts 105°
2026-04-26 08:46 18.33176 -65.04752 1019 ft 158 kts 92°
2026-04-26 08:46 18.33259 -65.03564 973 ft 164 kts 91°
2026-04-26 08:47 18.33432 -65.02380 866 ft 162 kts 83°
2026-04-26 08:47 18.33563 -65.01420 750 ft 160 kts 86°
2026-04-26 08:48 18.33611 -65.01046 681 ft 159 kts 87°
2026-04-26 08:48 18.33681 -64.99911 439 ft 154 kts 93°
2026-04-26 08:49 18.33665 -64.98817 171 ft 144 kts 96°
2026-04-26 08:49 18.33730 -64.97817 38 ft 129 kts 91°
2026-04-26 08:49 18.33725 -64.97210 35 ft 43 kts 85°
2026-04-26 08:49 18.33734 -64.97101 35 ft 13 kts 89°
2026-04-26 08:50 18.33735 -64.97046 35 ft 9 kts 88°
2026-04-26 08:50 18.33676 -64.99404 303 ft 151 kts 98°
2026-04-26 08:50 18.33685 -64.98283 80 ft 137 kts 89°
2026-04-26 08:52 18.33743 -64.97677 37 ft 118 kts 91°
2026-04-26 08:52 18.33726 -64.97183 35 ft 30 kts 84°
2026-04-26 08:53 18.33729 -64.97150 35 ft 25 kts 81°
2026-04-26 08:53 18.33736 -64.97031 35 ft 7 kts 88°
2026-04-26 08:53 18.33738 -64.96982 35 ft 10 kts 86°
2026-04-26 08:53 18.33742 -64.96887 35 ft 14 kts 89°
2026-04-26 08:54 18.33742 -64.96811 35 ft 6 kts 91°
2026-04-26 08:54 18.33743 -64.96788 35 ft 2 kts 84°
2026-04-26 08:54 18.33746 -64.96756 35 ft 6 kts 84°
2026-04-26 08:54 18.33742 -64.96701 35 ft 9 kts 114°
2026-04-26 08:58 18.33736 -64.96691 35 ft 10 kts 126°
2026-04-26 08:58 18.33680 -64.96700 35 ft 11 kts 241°
2026-04-26 08:58 18.33670 -64.96771 35 ft 14 kts 266°
2026-04-26 08:59 18.33669 -64.96811 35 ft 16 kts 269°
2026-04-26 08:59 18.33668 -64.96939 35 ft 19 kts 262°
2026-04-26 08:59 18.33656 -64.97063 35 ft 22 kts 269°
2026-04-26 09:00 18.33651 -64.97219 35 ft 24 kts 262°
2026-04-26 09:00 18.33621 -64.97377 35 ft 16 kts 221°
2026-04-26 09:01 18.33568 -64.97376 35 ft 7 kts 134°
2026-04-26 09:01 18.33546 -64.97343 35 ft 4 kts 122°
2026-04-26 09:01 18.33541 -64.97333 35 ft 0 kts 122°
2026-04-26 09:04 18.33540 -64.97333 35 ft 0 kts 122°